Accueil
METAR-TAF:

METAR-TAF

Aéroports :

Ely Airport (Yelland Field)

Ely, Nevada, États-Unis

latitude: 39-17-42N, longitude: 114-50-43W, altitude: 1907 m

Observation

Le bulletin a été fait il y a 45 minutes, à 16:53 UTC
Vent 7 kt de sud/sud-ouest
Température 8°C
Humidité 31%
Pression 1024 hPa
Visibilité: 16.1 km
Ciel clair

METAR: KELY 141653Z AUTO 20007KT 10SM CLR 08/M08 A3024 RMK AO2 SLP219 T00781078

Heure: 09:38 (17:38 UTC)

Prévision

Le bulletin a été fait il y a 6 heures et 18 minutes, à 11:20 UTC
Prévision valable du 14 à 12 UTC au 15 à 12 UTC
Vent 10 kt de sud
Visibilité: 10 km
Nuages épars à une hauteur de 15000 ft
Nuages fragmentés à une hauteur de 20000 ft

TAF: KELY 141120Z 1412/1512 17010KT P6SM SCT150 BKN200

Observations et prévisions météorologiques de plus de 4000 aéroports (messages METAR et TAF).

Les stations disponibles sont représentées par des disques jaunes et rouges sur la carte.

Passer la souris dessus pour voir le nom de la station.

Cliquer dessus pour voir les observations et prévisions météorologiques.

Pour changer de carte: cliquez sur les boutons verts avec une croix noire pour zoomer, sur le bouton vert avec un tiret pour effectuer un zoom arrière, ou sur les flèches vertes pour les cartes adjacentes.


METAR-TAF: